Date String (YYYY-MM-DD hh:mm:ss) UTC,Instrument flags,Ambient pressure (hPa),Sample flow (lpm),Bypass flow (lpm),Sample temperature (°C),Ambient temperature (°C),ASC tube jacket temperature (°C),LED temperature (°C),Box temperature (°C),Sample RH (%),Span deviation,Mass concentration (μg/m³),Mass concentration (μg/m³),Mass concentration (μg/m³)
DateTimeUTC,F1_M11,P_M11,Q1_M11,Q2_M11,T1_M11,T2_M11,T3_M11,T4_M11,T5_M11,U1_M11,ZSPAN_M11,X0_M11,X2_M11,X1_M11
2022-07-13 09:00:00,,0829.1,5.01,0.00,30.0,28.9,00.0,38.7,31.9,19.0,0000.0,0012.94,0005.73,0005.09
2022-07-13 09:01:00,,0829.1,5.00,0.00,30.0,28.9,00.0,38.7,31.9,18.7,0000.0,0013.71,0005.77,0005.14
2022-07-13 09:02:00,,0829.1,5.00,0.00,30.0,29.0,00.0,38.7,31.9,18.8,0000.0,0014.03,0005.81,0005.18
2022-07-13 09:03:00,,0829.1,4.99,0.00,30.0,29.0,00.0,38.7,32.0,18.9,0000.0,0013.59,0005.86,0005.21
2022-07-13 09:04:00,,0829.2,5.00,0.00,30.0,29.0,00.0,38.8,32.0,18.8,0000.0,0013.36,0005.93,0005.25
2022-07-13 09:05:00,,0829.2,4.99,0.00,30.1,29.1,00.0,38.8,32.0,18.7,0000.0,0013.05,0006.00,0005.29
2022-07-13 09:06:00,,0829.2,5.00,0.00,30.1,29.1,00.0,38.8,32.0,18.6,0000.0,0012.73,0005.99,0005.30
2022-07-13 09:07:00,,0829.2,5.00,0.00,30.1,28.8,00.0,38.8,32.0,18.5,0000.0,0012.42,0005.99,0005.31
2022-07-13 09:08:00,,0829.2,5.00,0.00,30.1,28.0,00.0,38.7,31.8,18.5,0000.0,0012.73,0006.00,0005.31
2022-07-13 09:09:00,,0829.2,5.01,0.00,30.0,27.6,00.0,38.7,31.7,18.5,0000.0,0013.28,0006.04,0005.32
2022-07-13 09:10:00,,0829.2,5.01,0.00,29.9,27.6,00.0,38.7,31.6,18.7,0000.0,0013.04,0006.04,0005.32
2022-07-13 09:11:00,,0829.2,5.00,0.00,29.8,27.6,00.0,38.7,31.6,19.1,0000.0,0012.89,0006.05,0005.32
2022-07-13 09:12:00,,0829.2,4.99,0.00,29.8,27.7,00.0,38.7,31.5,19.3,0000.0,0012.21,0006.12,0005.33
2022-07-13 09:13:00,,0829.3,4.99,0.00,29.8,27.8,00.0,38.6,31.6,19.4,0000.0,0011.79,0006.11,0005.34
2022-07-13 09:14:00,,0829.3,5.00,0.00,29.8,28.0,00.0,38.6,31.6,19.4,0000.0,0012.40,0006.09,0005.35
2022-07-13 09:15:00,,0829.2,5.01,0.00,29.8,28.1,00.0,38.6,31.5,19.6,0000.0,0012.71,0006.07,0005.35
2022-07-13 09:16:00,,0829.3,4.99,0.00,29.8,28.2,00.0,38.6,31.6,19.5,0000.0,0013.33,0006.07,0005.35
2022-07-13 09:17:00,,0829.2,5.00,0.00,29.8,28.3,00.0,38.6,31.7,19.6,0000.0,0013.63,0006.10,0005.37
2022-07-13 09:18:00,,0829.2,5.01,0.00,29.8,28.4,00.0,38.6,31.7,19.7,0000.0,0013.84,0006.15,0005.38
2022-07-13 09:19:00,,0829.2,5.01,0.00,29.8,28.5,00.0,38.6,31.7,20.0,0000.0,0013.58,0006.22,0005.38
2022-07-13 09:20:00,,0829.2,5.00,0.00,29.8,28.6,00.0,38.6,31.7,20.0,0000.0,0012.86,0006.27,0005.39
2022-07-13 09:21:00,,0829.2,5.00,0.00,29.9,28.6,00.0,38.6,31.7,20.0,0000.0,0012.95,0006.28,0005.37
2022-07-13 09:22:00,,0829.3,5.00,0.00,29.9,28.7,00.0,38.7,31.7,20.1,0000.0,0013.19,0006.29,0005.36
2022-07-13 09:23:00,,0829.3,5.00,0.00,29.9,28.7,00.0,38.7,31.8,19.9,0000.0,0013.38,0006.27,0005.33
2022-07-13 09:24:00,,0829.3,5.00,0.00,29.9,28.8,00.0,38.7,31.8,20.0,0000.0,0013.61,0006.28,0005.32
2022-07-13 09:25:00,,0829.3,4.99,0.00,29.9,28.8,00.0,38.7,31.9,20.3,0000.0,0013.89,0006.32,0005.32
2022-07-13 09:26:00,,0829.2,5.00,0.00,30.0,28.9,00.0,38.7,31.9,20.4,0000.0,0013.67,0006.36,0005.34
2022-07-13 09:27:00,,0829.3,5.00,0.00,30.0,28.9,00.0,38.7,31.9,20.6,0000.0,0013.07,0006.39,0005.35
2022-07-13 09:28:00,,0829.2,5.01,0.00,30.0,29.0,00.0,38.7,31.9,20.7,0000.0,0013.63,0006.45,0005.35
2022-07-13 09:29:00,,0829.4,5.00,0.00,30.0,29.0,00.0,38.8,32.0,20.8,0000.0,0013.25,0006.49,0005.35
2022-07-13 09:30:00,,0829.3,5.00,0.00,30.0,29.0,00.0,38.8,32.0,20.9,0000.0,0013.39,0006.51,0005.36
2022-07-13 09:31:00,,0829.3,5.00,0.00,30.1,29.0,00.0,38.8,32.0,20.9,0000.0,0013.90,0006.51,0005.38
2022-07-13 09:32:00,,0829.5,4.99,0.00,30.1,29.1,00.0,38.8,32.0,21.2,0000.0,0013.99,0006.50,0005.40
2022-07-13 09:33:00,,0829.5,5.00,0.00,30.1,29.1,00.0,38.8,32.0,21.5,0000.0,0014.18,0006.50,0005.41
2022-07-13 09:34:00,,0829.5,5.00,0.00,30.1,29.1,00.0,38.9,32.0,21.4,0000.0,0015.59,0006.51,0005.43
2022-07-13 09:35:00,,0829.5,5.00,0.00,30.2,29.1,00.0,38.9,32.0,21.6,0000.0,0015.93,0006.54,0005.44
2022-07-13 09:36:00,,0829.5,5.00,0.00,30.2,29.1,00.0,38.9,32.0,21.8,0000.0,0015.77,0006.55,0005.43
2022-07-13 09:37:00,,0829.5,4.99,0.00,30.2,28.3,00.0,38.8,31.9,21.9,0000.0,0015.63,0006.53,0005.43
2022-07-13 09:38:00,,0829.5,4.99,0.00,30.1,27.7,00.0,38.8,31.8,22.0,0000.0,0016.13,0006.58,0005.44
2022-07-13 09:39:00,,0829.4,5.01,0.00,30.0,27.6,00.0,38.8,31.7,22.1,0000.0,0016.32,0006.56,0005.43
2022-07-13 09:40:00,,0829.5,4.99,0.00,29.9,27.6,00.0,38.7,31.6,22.1,0000.0,0017.64,0006.53,0005.41
2022-07-13 09:41:00,,0829.5,5.00,0.00,29.9,27.7,00.0,38.7,31.6,22.2,0000.0,0018.27,0006.52,0005.40
2022-07-13 09:42:00,,0829.5,5.00,0.00,29.9,27.8,00.0,38.7,31.6,22.2,0000.0,0017.98,0006.53,0005.39
2022-07-13 09:43:00,,0829.5,5.00,0.00,29.8,28.0,00.0,38.7,31.6,22.3,0000.0,0019.04,0006.56,0005.37
2022-07-13 09:44:00,,0829.5,5.01,0.00,29.8,28.1,00.0,38.7,31.6,22.4,0000.0,0019.17,0006.56,0005.37
2022-07-13 09:45:00,,0829.5,5.00,0.00,29.8,28.2,00.0,38.7,31.6,22.3,0000.0,0018.64,0006.59,0005.38
2022-07-13 09:46:00,,0829.5,4.99,0.00,29.8,28.3,00.0,38.7,31.7,22.2,0000.0,0019.61,0006.63,0005.38
2022-07-13 09:47:00,,0829.5,5.01,0.00,29.8,28.4,00.0,38.7,31.7,22.2,0000.0,0019.38,0006.62,0005.38
2022-07-13 09:48:00,,0829.4,5.00,0.00,29.9,28.5,00.0,38.7,31.7,22.0,0000.0,0019.52,0006.64,0005.37
2022-07-13 09:49:00,,0829.4,5.00,0.00,29.9,28.6,00.0,38.7,31.8,21.8,0000.0,0019.07,0006.61,0005.36
2022-07-13 09:50:00,,0829.5,5.01,0.00,29.9,28.6,00.0,38.7,31.8,21.6,0000.0,0018.70,0006.58,0005.36
2022-07-13 09:51:00,,0829.5,5.00,0.00,29.9,28.7,00.0,38.7,31.8,21.8,0000.0,0017.39,0006.56,0005.40
2022-07-13 09:52:00,,0829.5,4.99,0.00,29.9,28.7,00.0,38.7,31.8,22.1,0000.0,0016.36,0006.54,0005.44
2022-07-13 09:53:00,,0829.5,5.01,0.00,29.9,28.7,00.0,38.7,31.8,22.1,0000.0,0016.21,0006.57,0005.48
2022-07-13 09:54:00,,0829.5,5.00,0.00,29.9,28.8,00.0,38.7,31.8,21.8,0000.0,0015.81,0006.55,0005.50
2022-07-13 09:55:00,,0829.5,5.00,0.00,30.0,28.8,00.0,38.7,31.8,21.7,0000.0,0015.50,0006.55,0005.53
2022-07-13 09:56:00,,0829.5,5.00,0.00,30.0,28.8,00.0,38.8,31.9,21.6,0000.0,0015.91,0006.60,0005.55
2022-07-13 09:57:00,,0829.5,5.01,0.00,30.0,28.8,00.0,38.8,31.9,21.5,0000.0,0015.00,0006.59,0005.58
2022-07-13 09:58:00,,0829.5,4.99,0.00,30.0,28.9,00.0,38.8,31.8,21.4,0000.0,0014.53,0006.58,0005.60
2022-07-13 09:59:00,,0829.5,4.99,0.00,30.0,28.9,00.0,38.8,31.9,21.5,0000.0,0014.32,0006.53,0005.62
